Location: Wangen/Allg�u
(47.6873°N, 9.8307°E)
Time: 21:45:40
(UTC+01:00)

ISS - Visible Passes

Search period start: 09 February 2026 00:00
Search period end: 19 February 2026 00:00
Orbit: 414 x 429 km, 51.6° (Epoch: 9 February)

Date Brightness Start Highest point End Pass type
(mag) Time Alt. Az. Time Alt. Az. Time Alt. Az.
12 Feb -0.9 06:20:12 10° S 06:22:29 17° SE 06:24:46 10° E visible
13 Feb -0.7 05:34:36 10° SSE 05:35:39 11° SE 05:36:43 10° ESE visible
14 Feb -2.5 06:21:47 10° SW 06:24:56 40° SSE 06:28:06 10° ENE visible
15 Feb -1.9 05:36:22 18° S 05:37:59 27° SE 05:40:51 10° E visible
16 Feb -1.2 04:51:33 17° SE 04:51:33 17° SE 04:53:24 10° E visible
16 Feb -3.8 06:24:33 13° WSW 06:27:31 88° SE 06:30:52 10° ENE visible
17 Feb -3.5 05:39:35 43° SSW 05:40:26 62° SSE 05:43:44 10° ENE visible
18 Feb -1.9 04:54:29 30° E 04:54:29 30° E 04:56:33 10° ENE visible
18 Feb -3.5 06:27:29 14° W 06:30:11 53° NNW 06:33:28 10° ENE visible
